EDT,Max TemperatureF,Mean TemperatureF,Min TemperatureF,Max Dew PointF,MeanDew PointF,Min DewpointF,Max Humidity, Mean Humidity, Min Humidity, Max Sea Level PressureIn, Mean Sea Level PressureIn, Min Sea Level PressureIn, Max VisibilityMiles, Mean VisibilityMiles, Min VisibilityMiles, Max Wind SpeedMPH, Mean Wind SpeedMPH, Max Gust SpeedMPH,PrecipitationIn, CloudCover, Events, WindDirDegrees
2012-10-1,64,54,44,52,48,42,93,78,53,29.93,29.86,29.78,10,9,2,14,4,,0.21,4,Rain,74
2012-10-2,79,66,55,67,61,52,96,88,66,29.91,29.80,29.72,10,6,0,14,3,25,0.49,7,Fog-Rain,120
2012-10-3,70,62,55,61,57,52,100,86,54,30.15,30.03,29.90,10,6,0,12,3,20,0.01,4,Fog,214
2012-10-4,75,62,48,56,52,47,97,78,44,30.22,30.17,30.14,10,7,1,14,2,23,0.00,1,,236
2012-10-5,75,64,50,58,54,45,88,71,51,30.14,30.05,29.93,10,10,8,13,6,22,0.00,4,Rain,260
2012-10-6,57,50,42,45,40,29,93,77,36,30.14,30.04,29.96,10,8,2,16,8,22,0.28,5,Rain,321
2012-10-7,50,45,39,39,36,34,89,70,61,30.20,30.15,30.10,10,10,10,12,3,,0.00,8,,313
2012-10-8,53,44,35,38,36,32,93,79,54,30.27,30.22,30.18,10,8,2,8,1,,0.00,3,,167
2012-10-9,59,44,28,41,33,27,100,82,39,30.23,30.16,30.01,10,5,0,9,1,,0.00,1,Fog,174
2012-10-10,57,48,30,45,37,28,89,70,39,30.25,30.04,29.94,10,10,10,16,7,24,0.00,4,Rain,261
2012-10-11,59,42,28,34,29,25,92,70,33,30.33,30.26,30.19,10,10,10,9,2,,0.00,0,,208
2012-10-12,59,44,32,39,32,24,93,66,28,30.41,30.32,30.20,10,10,10,9,2,20,0.00,2,,33
2012-10-13,70,49,28,53,38,26,92,67,42,30.39,30.25,30.05,10,10,10,13,3,17,0.00,1,,165
2012-10-14,77,68,62,57,55,53,75,65,48,30.04,29.89,29.71,10,10,8,22,10,33,0.01,5,Rain,196
2012-10-15,61,54,42,54,46,39,89,79,62,29.96,29.85,29.72,10,8,2,20,10,34,0.08,7,Rain,276
2012-10-16,60,46,32,40,34,30,100,84,44,30.04,29.97,29.86,10,5,0,8,1,,0.00,0,Fog,194
2012-10-17,75,60,46,49,44,39,76,56,35,29.87,29.79,29.65,10,10,10,16,8,21,0.00,3,,163
2012-10-18,63,52,42,50,41,29,88,62,31,29.77,29.66,29.56,10,9,2,22,11,29,0.10,5,Rain,214
2012-10-19,61,52,44,45,42,34,89,75,38,29.73,29.68,29.58,10,9,3,13,8,21,0.35,7,Rain,192
2012-10-20,55,50,45,46,43,39,93,82,55,29.99,29.81,29.71,10,9,2,14,8,18,0.05,8,Rain,246
2012-10-21,61,46,32,44,36,30,96,82,47,30.17,30.12,30.01,10,7,0,8,1,,0.00,1,Fog,211
2012-10-22,75,57,39,53,46,37,93,68,40,30.18,30.12,30.06,10,10,6,10,3,,0.00,2,,188
2012-10-23,77,67,57,51,48,45,78,53,34,30.08,30.05,30.00,10,10,9,16,5,22,0.01,2,Rain,225
2012-10-24,78,65,51,56,52,47,90,68,42,30.14,30.09,30.05,10,10,7,12,4,,0.07,3,Rain,200
2012-10-25,79,62,45,53,48,43,93,66,36,30.10,30.04,29.98,10,10,6,13,3,,0.00,0,,188
2012-10-26,62,55,48,53,47,44,90,79,62,30.12,30.07,29.99,10,10,7,14,6,21,0.07,6,Rain,11
2012-10-27,50,48,46,46,44,41,93,88,74,30.10,30.06,30.00,10,6,2,16,9,24,0.75,8,Rain,8
2012-10-28,46,42,39,43,39,35,89,84,77,30.08,30.00,29.96,10,9,4,17,11,26,0.77,8,Rain,4
2012-10-29,39,38,37,37,35,33,93,88,86,29.97,29.82,29.54,10,10,6,26,15,34,0.29,8,Rain,339
2012-10-30,39,36,33,36,32,30,93,87,81,29.56,29.41,29.36,10,5,2,26,21,39,0.20,8,Rain-Snow,318
2012-10-31,42,39,37,37,36,34,93,90,79,29.76,29.64,29.54,10,6,2,15,10,23,0.12,8,Rain,288